NMB286 EDDF-FYWH

Flight info

Callsign NMB286
Flight time N/A
Altitude 33000
Route ANEKI2L/18 ANEKI Y163 NATOR DCT TRA DCT RIPUS DCT GERSA DCT SOSON DCT ODINA DCT PIDAD DCT TALEP/N0477F350 DCT VAREK DCT ERPIN DCT ETOIL DCT CIRTA UA605 CSO UM2 DJA UB730 DIR/N0480F370 UA607 FL UA403 BZ/N0473F390 DCT KSA UT943 VEDRY
Aircraft MD11/H-SDE1E2E3FGHIJ2J3J4J5M1RWXY/LB1D1

Departure

Time 2026-04-18 09:40
Airport Frankfurt Main Airport (EDDF)

Arrival

Time N/A
Airport Hosea Kutako International Airport (FYWH)
Time Latitude Longitude Altitude Speed Heading
2026-04-18 08:58 50.04879 8.57971 367 ft 0 kts 12°
2026-04-18 09:26 50.04860 8.57964 369 ft 3 kts 12°
2026-04-18 09:26 50.04838 8.57954 365 ft 4 kts 40°
2026-04-18 09:27 50.04826 8.57933 367 ft 4 kts 83°
2026-04-18 09:27 50.04828 8.57896 365 ft 4 kts 112°
2026-04-18 09:27 50.04839 8.57858 367 ft 4 kts 118°
2026-04-18 09:27 50.04851 8.57821 365 ft 3 kts 114°
2026-04-18 09:28 50.04853 8.57817 368 ft 0 kts 113°
2026-04-18 09:31 50.04851 8.57823 365 ft 3 kts 114°
2026-04-18 09:31 50.04823 8.57881 365 ft 10 kts 138°
2026-04-18 09:31 50.04755 8.57932 365 ft 14 kts 159°
2026-04-18 09:32 50.04689 8.57972 371 ft 0 kts 160°
2026-04-18 09:32 50.04678 8.57978 369 ft 3 kts 160°
2026-04-18 09:32 50.04666 8.57985 369 ft 0 kts 160°
2026-04-18 09:33 50.04624 8.58008 369 ft 7 kts 160°
2026-04-18 09:33 50.04593 8.58026 370 ft 2 kts 156°
2026-04-18 09:34 50.04586 8.58033 375 ft 3 kts 149°
2026-04-18 09:34 50.04565 8.58085 370 ft 9 kts 105°
2026-04-18 09:34 50.04579 8.58178 375 ft 7 kts 68°
2026-04-18 09:34 50.04592 8.58230 377 ft 4 kts 69°
2026-04-18 09:35 50.04601 8.58264 380 ft 4 kts 69°
2026-04-18 09:35 50.04613 8.58313 380 ft 7 kts 69°
2026-04-18 09:35 50.04638 8.58416 376 ft 13 kts 69°
2026-04-18 09:35 50.04652 8.58502 376 ft 4 kts 96°
2026-04-18 09:36 50.04632 8.58559 376 ft 9 kts 138°
2026-04-18 09:36 50.04606 8.58581 376 ft 0 kts 158°
2026-04-18 09:36 50.04601 8.58584 377 ft 4 kts 158°
2026-04-18 09:37 50.04549 8.58616 378 ft 12 kts 158°
2026-04-18 09:37 50.04520 8.58628 378 ft 4 kts 178°
2026-04-18 09:37 50.04495 8.58608 378 ft 4 kts 218°
2026-04-18 09:37 50.04476 8.58555 378 ft 0 kts 249°
2026-04-18 09:38 50.04476 8.58554 378 ft 0 kts 249°
2026-04-18 09:38 50.04475 8.58549 378 ft 3 kts 249°
2026-04-18 09:39 50.04379 8.58152 378 ft 81 kts 250°
2026-04-18 09:39 50.04095 8.56939 371 ft 154 kts 250°
2026-04-18 09:39 50.03663 8.55113 486 ft 193 kts 251°
2026-04-18 09:39 50.03359 8.53839 896 ft 195 kts 251°
2026-04-18 09:40 50.02894 8.51843 1771 ft 191 kts 251°
2026-04-18 09:40 50.02189 8.50115 2512 ft 194 kts 223°
2026-04-18 09:40 50.01011 8.49109 3218 ft 196 kts 200°
2026-04-18 09:40 49.99657 8.48773 3978 ft 198 kts 177°
2026-04-18 09:41 49.98315 8.49385 4446 ft 212 kts 151°
2026-04-18 09:41 49.97237 8.50994 5012 ft 220 kts 123°
2026-04-18 09:41 49.96399 8.53007 5562 ft 225 kts 132°
2026-04-18 09:41 49.95151 8.54546 5834 ft 236 kts 161°
2026-04-18 09:42 49.93503 8.54770 6017 ft 243 kts 188°
2026-04-18 09:42 49.91814 8.54312 6241 ft 251 kts 193°
2026-04-18 09:42 49.90055 8.53699 6380 ft 269 kts 189°
2026-04-18 09:42 49.88166 8.53536 6833 ft 278 kts 181°
2026-04-18 09:43 49.86201 8.53607 7514 ft 284 kts 179°
2026-04-18 09:43 49.84214 8.53732 8211 ft 288 kts 179°
2026-04-18 09:43 49.82198 8.53872 8921 ft 292 kts 179°
2026-04-18 09:43 49.80188 8.54014 9617 ft 296 kts 179°
2026-04-18 09:44 49.78113 8.54081 10274 ft 300 kts 183°
2026-04-18 09:44 49.76004 8.53911 10445 ft 321 kts 186°
2026-04-18 09:44 49.73688 8.53619 10582 ft 343 kts 186°
2026-04-18 09:44 49.71251 8.53285 10940 ft 356 kts 186°
2026-04-18 09:45 49.68794 8.52946 11570 ft 360 kts 187°
2026-04-18 09:45 49.66284 8.52605 12215 ft 365 kts 187°
2026-04-18 09:45 49.63734 8.52261 12824 ft 370 kts 187°
2026-04-18 09:45 49.61144 8.51915 13455 ft 375 kts 187°
2026-04-18 09:46 49.58528 8.51567 14080 ft 379 kts 188°
2026-04-18 09:46 49.55885 8.51216 14643 ft 383 kts 188°
2026-04-18 09:46 49.53218 8.50864 15219 ft 386 kts 188°
2026-04-18 09:46 49.50526 8.50510 15807 ft 389 kts 188°
2026-04-18 09:47 49.47824 8.50154 16383 ft 393 kts 188°
2026-04-18 09:47 49.45080 8.49793 16958 ft 396 kts 188°
2026-04-18 09:47 49.42320 8.49431 17523 ft 400 kts 188°
2026-04-18 09:47 49.39563 8.49069 18055 ft 404 kts 188°
2026-04-18 09:48 49.36751 8.48700 18599 ft 407 kts 188°
2026-04-18 09:48 49.33919 8.48329 19093 ft 410 kts 188°
2026-04-18 09:48 49.31061 8.47958 19603 ft 412 kts 188°
2026-04-18 09:48 49.28196 8.47587 20099 ft 415 kts 188°
2026-04-18 09:49 49.25309 8.47213 20594 ft 417 kts 188°
2026-04-18 09:49 49.22404 8.46835 21087 ft 420 kts 188°
2026-04-18 09:49 49.19486 8.46454 21549 ft 423 kts 188°
2026-04-18 09:49 49.16550 8.46072 22016 ft 425 kts 188°
2026-04-18 09:50 49.13623 8.45691 22494 ft 428 kts 188°
2026-04-18 09:50 49.10607 8.45299 22968 ft 430 kts 187°
2026-04-18 09:50 49.07651 8.44906 23420 ft 433 kts 189°
2026-04-18 09:50 49.04671 8.44238 23863 ft 433 kts 193°
2026-04-18 09:51 49.01707 8.43306 24244 ft 435 kts 195°
2026-04-18 09:51 48.98745 8.42258 24623 ft 437 kts 196°
2026-04-18 09:51 48.95777 8.41175 24962 ft 440 kts 197°
2026-04-18 09:51 48.92793 8.40092 25342 ft 442 kts 196°
2026-04-18 09:52 48.89794 8.39018 25728 ft 445 kts 196°
2026-04-18 09:52 48.86768 8.37949 26102 ft 447 kts 196°
2026-04-18 09:52 48.83723 8.36883 26475 ft 449 kts 196°
2026-04-18 09:52 48.80702 8.35832 26839 ft 452 kts 196°
2026-04-18 09:53 48.77625 8.34744 27202 ft 454 kts 197°
2026-04-18 09:53 48.74542 8.33629 27539 ft 456 kts 197°
2026-04-18 09:53 48.71447 8.32496 27865 ft 459 kts 197°
2026-04-18 09:53 48.68336 8.31355 28219 ft 460 kts 197°
2026-04-18 09:54 48.65213 8.30209 28542 ft 463 kts 197°
2026-04-18 09:54 48.62069 8.29057 28881 ft 465 kts 197°
2026-04-18 09:54 48.58921 8.27907 29218 ft 467 kts 197°
2026-04-18 09:54 48.55790 8.26765 29519 ft 470 kts 197°
2026-04-18 09:55 48.52602 8.25606 29836 ft 471 kts 197°
2026-04-18 09:55 48.49371 8.24703 30251 ft 474 kts 188°
2026-04-18 09:55 48.46059 8.24677 30650 ft 478 kts 179°
2026-04-18 09:55 48.42740 8.25324 30991 ft 480 kts 174°
2026-04-18 09:56 48.39454 8.26247 31341 ft 481 kts 172°
2026-04-18 09:56 48.36176 8.27228 31745 ft 478 kts 172°
2026-04-18 09:56 48.32909 8.28169 32110 ft 476 kts 173°
2026-04-18 09:56 48.29654 8.29049 32500 ft 474 kts 173°
2026-04-18 09:57 48.26409 8.29879 32894 ft 471 kts 174°
2026-04-18 09:57 48.23212 8.30667 33126 ft 473 kts 174°
2026-04-18 09:57 48.16651 8.32243 33180 ft 481 kts 174°
2026-04-18 09:58 48.10036 8.33841 33178 ft 478 kts 174°
2026-04-18 09:58 48.03471 8.35435 33183 ft 477 kts 174°
2026-04-18 09:59 47.96943 8.37018 33185 ft 478 kts 174°
2026-04-18 10:00 47.87080 8.39402 33182 ft 478 kts 174°
2026-04-18 10:00 47.80544 8.40977 33196 ft 478 kts 174°
2026-04-18 10:01 47.73959 8.42559 33199 ft 478 kts 174°
2026-04-18 10:01 47.67381 8.43976 33198 ft 476 kts 176°
2026-04-18 10:02 47.60804 8.44975 33205 ft 476 kts 178°
2026-04-18 10:02 47.54211 8.45902 33209 ft 476 kts 178°
2026-04-18 10:03 47.47606 8.46855 33201 ft 476 kts 178°
2026-04-18 10:03 47.41002 8.47824 33208 ft 477 kts 178°
2026-04-18 10:04 47.34386 8.48798 33204 ft 477 kts 177°
2026-04-18 10:04 47.27808 8.49762 33206 ft 477 kts 178°
2026-04-18 10:05 47.21203 8.50725 33201 ft 478 kts 178°
2026-04-18 10:05 47.14580 8.51687 33205 ft 478 kts 177°
2026-04-18 10:06 47.07958 8.52649 33200 ft 478 kts 177°
2026-04-18 10:06 47.01332 8.53608 33200 ft 478 kts 177°
2026-04-18 10:07 46.94705 8.54563 33206 ft 478 kts 177°
2026-04-18 10:07 46.88107 8.55513 33206 ft 478 kts 177°
2026-04-18 10:08 46.81484 8.56465 33209 ft 478 kts 177°
2026-04-18 10:08 46.74855 8.57415 33210 ft 479 kts 177°
2026-04-18 10:09 46.68224 8.58363 33204 ft 477 kts 177°
2026-04-18 10:09 46.61598 8.59308 33207 ft 478 kts 177°
2026-04-18 10:10 46.55005 8.60244 33204 ft 479 kts 177°
2026-04-18 10:10 46.48374 8.61187 33193 ft 478 kts 177°
2026-04-18 10:11 46.41739 8.62128 33199 ft 478 kts 177°
2026-04-18 10:11 46.35104 8.63068 33179 ft 478 kts 177°
2026-04-18 10:12 46.28473 8.64005 33166 ft 479 kts 177°
2026-04-18 10:12 46.21880 8.64933 33165 ft 478 kts 176°
2026-04-18 10:13 46.15228 8.65869 33169 ft 479 kts 177°
2026-04-18 10:13 46.08591 8.66592 33164 ft 478 kts 180°
2026-04-18 10:14 46.01929 8.66760 33143 ft 478 kts 182°
2026-04-18 10:14 45.95263 8.66827 33158 ft 479 kts 182°
2026-04-18 10:15 45.88622 8.66930 33147 ft 478 kts 181°
2026-04-18 10:15 45.81960 8.67059 33149 ft 478 kts 181°
2026-04-18 10:16 45.75282 8.67193 33152 ft 480 kts 181°
2026-04-18 10:16 45.68601 8.67327 33160 ft 480 kts 181°
2026-04-18 10:17 45.61954 8.67458 33155 ft 480 kts 181°
2026-04-18 10:17 45.55275 8.67590 33159 ft 481 kts 181°